Weather History for Idaho Falls, ID

Change the Weather History Date:

Saturday, October 6, 2012

  Actual Average Record
Temperature  
Mean Temperature 39 °F 49 °F  
Max Temperature 54 °F 64 °F 80 °F (1975)
Min Temperature 24 °F 33 °F 21 °F (2000)
Degree Days  
Heating Degree Days 26 16  
Month to date heating degree days 109 91  
Since 1 July heating degree days 264 399  
Cooling Degree Days 0 0  
Month to date cooling degree days 0 0  
Year to date cooling degree days 444 264  
Moisture  
Dew Point 11 °F    
Average Humidity 40    
Maximum Humidity 68    
Minimum Humidity 11    
Precipitation  
Precipitation 0.00 in 0.02 in 0.78 in (2011)
Month to date precipitation 0.00 0.16  
Year to date precipitation 4.32 7.98  
Sea Level Pressure  
Sea Level Pressure 30.28 in    
Wind  
Wind Speed 7 mph (North)    
Max Wind Speed 17 mph    
Max Gust Speed 21 mph    
Visibility 9 miles    
Events      
T = Trace of Precipitation, MM = Missing Value Source: NWS Daily Summary

Daily Weather History Graph

Daily Weather History Graph

Search for Another Location

Airport:

Trip Planner

Search our weather history database for the weather conditions in past years. The results will help you decide how hot, cold, wet, or windy it might be!

Date:

Astronomy

Oct. 06, 2012 Rise Set
Actual Time 7:32 AM MDT 6:59 PM MDT
Civil Twilight 7:03 AM MDT 7:27 PM MDT
Nautical Twilight 6:30 AM MDT 8:01 PM MDT
Astronomical Twilight 5:57 AM MDT 8:34 PM MDT
Moon 11:10 PM MDT (10/6) 1:37 PM MDT (10/6)
Length of Visible Light 12h 24m
Length of Day
11h 27m
Waning Gibbous, 65% of the Moon is Illuminated
Oct 6
Waning Gibbous
Oct 8
Last Quarter
Oct 15
New
Oct 21
First Quarter
Oct 29
Full

Hourly Weather History & Observations

Time (MDT) Temp. Windchill Dew Point Humidity Pressure Visibility Wind Dir Wind Speed Gust Speed Precip Events Conditions
12:53 AM 35.1 °F 25.9 °F 18.0 °F 50% 30.29 in 10.0 mi NNE 13.8 mph - N/A   Clear
1:53 AM 32.0 °F 22.5 °F 17.1 °F 54% 30.31 in 10.0 mi North 12.7 mph - N/A   Clear
2:53 AM 32.0 °F 22.1 °F 17.1 °F 54% 30.31 in 10.0 mi NNE 13.8 mph - N/A   Clear
3:53 AM 30.9 °F 21.7 °F 17.1 °F 57% 30.31 in 10.0 mi North 11.5 mph - N/A   Clear
4:53 AM 30.0 °F 20.5 °F 16.0 °F 56% 30.32 in 10.0 mi NNE 11.5 mph - N/A   Clear
5:53 AM 28.0 °F 20.8 °F 16.0 °F 61% 30.34 in 10.0 mi NNE 6.9 mph - N/A   Clear
6:53 AM 25.0 °F 16.3 °F 15.1 °F 66% 30.35 in 10.0 mi NE 8.1 mph - N/A   Clear
8:53 AM 30.9 °F 21.7 °F 16.0 °F 54% 30.38 in 10.0 mi NNE 11.5 mph - N/A   Clear
9:53 AM 36.0 °F 26.7 °F 15.1 °F 43% 30.35 in 10.0 mi NE 15.0 mph - N/A   Clear
10:53 AM 39.9 °F 32.9 °F 14.0 °F 35% 30.33 in 10.0 mi NE 11.5 mph - N/A   Clear
11:53 AM 44.1 °F 38.6 °F 10.9 °F 26% 30.31 in 10.0 mi NNE 10.4 mph - N/A   Clear
12:53 PM 45.0 °F 42.6 °F 6.1 °F 20% 30.30 in 10.0 mi Variable 4.6 mph - N/A   Clear
1:53 PM 48.9 °F - 1.9 °F 15% 30.27 in 10.0 mi North 6.9 mph - N/A   Clear
2:53 PM 50.0 °F - 6.1 °F 17% 30.24 in 10.0 mi WNW 6.9 mph - N/A   Clear
3:53 PM 51.1 °F - 5.0 °F 15% 30.22 in 10.0 mi NW 5.8 mph - N/A   Clear
4:53 PM 52.0 °F - 1.9 °F 13% 30.20 in 10.0 mi Calm Calm - N/A   Clear
5:53 PM 53.1 °F - -0.0 °F 11% 30.19 in 10.0 mi Calm Calm - N/A   Clear
6:53 PM 46.9 °F - 6.1 °F 19% 30.22 in 10.0 mi Calm Calm - N/A   Clear
7:53 PM 42.1 °F 40.2 °F 6.1 °F 23% 30.25 in 10.0 mi West 3.5 mph - N/A   Clear
8:53 PM 39.0 °F - 14.0 °F 36% 30.25 in 10.0 mi Calm Calm - N/A   Clear
9:30 PM 35.6 °F - 10.4 °F 35% 30.20 in 2.5 mi Calm Calm - N/A   Haze
9:39 PM 37.4 °F - 10.4 °F 33% 30.20 in 9.0 mi Calm Calm - N/A   Clear
9:53 PM 39.0 °F - 10.0 °F 30% 30.24 in 4.0 mi Calm Calm - N/A   Haze
10:53 PM 30.9 °F 26.2 °F 12.0 °F 46% 30.26 in 10.0 mi North 4.6 mph - N/A   Clear
11:53 PM 34.0 °F - 12.0 °F 40% 30.25 in 10.0 mi Calm Calm - N/A   Clear